Saint Johnsbury, VT

4:58 PM EST on February 25, 2017 (GMT -0500)
St. Johnsbury

Weather History for K1V4 - September, 2013

Change the Weather History Date:

Friday, September 6, 2013

  Actual Average Record
Temperature  
Mean Temperature 53 °F 64 °F  
Max Temperature 67 °F 74 °F 89 °F (1945)
Min Temperature 38 °F 53 °F 33 °F (1942)
Degree Days  
Heating Degree Days 12 3  
Month to date heating degree days 25 17  
Since 1 July heating degree days 85 67  
Cooling Degree Days 0 2  
Month to date cooling degree days 20 13  
Year to date cooling degree days 387 411  
Growing Degree Days 2 (Base 50)    
Moisture  
Dew Point 40 °F    
Average Humidity 66    
Maximum Humidity 100    
Minimum Humidity 32    
Precipitation  
Precipitation 0.00 in 0.10 in 2.64 in (1953)
Month to date precipitation 0.43 0.60  
Year to date precipitation 25.40 26.36  
Sea Level Pressure  
Sea Level Pressure 30.16 in    
Wind  
Wind Speed - (North)    
Max Wind Speed -    
Max Gust Speed -    
T = Trace of Precipitation, MM = Missing Value Source: NWS Daily Summary

Daily Weather History Graph

Daily Weather History Graph

Search for Another Location

Airport or City:

Trip Planner

Search our weather history database for the weather conditions in past years. The results will help you decide how hot, cold, wet, or windy it might be!

Date:

Astronomy

Sep. 06, 2013 Rise Set
Actual Time 6:16 AM EDT 7:14 PM EDT
Civil Twilight 5:47 AM EDT 7:44 PM EDT
Nautical Twilight 5:11 AM EDT 8:19 PM EDT
Astronomical Twilight 4:34 AM EDT 8:56 PM EDT
Moon 7:31 AM EDT (9/6) 7:31 PM EDT (9/6)
Length of Visible Light 13h 57m
Length of Day
12h 58m
New Moon, 1% of the Moon is Illuminated
Sep 6
New Moon
Sep 12
First Quarter
Sep 19
Full
Sep 26
Last Quarter
Oct 4
New

Hourly Weather History & Observations

Time (EDT) Temp. Dew Point Humidity Pressure Visibility Wind Dir Wind Speed Gust Speed Precip Events Conditions
12:54 AM 41.0 °F 39.9 °F 96% 30.17 in - North - - N/A   Unknown
1:54 AM 39.9 °F 39.0 °F 97% 30.18 in - North - - N/A   Unknown
2:54 AM 39.9 °F 39.0 °F 97% 30.19 in - North - - N/A   Unknown
3:54 AM 39.9 °F 39.0 °F 97% 30.19 in - North - - N/A   Unknown
4:54 AM 39.0 °F 37.9 °F 96% 30.21 in - North - - N/A   Unknown
5:54 AM 37.9 °F 37.9 °F 100% 30.22 in - North - - N/A   Unknown
6:54 AM 37.9 °F 37.9 °F 100% 30.25 in - North - - N/A   Unknown
7:54 AM 37.9 °F 37.9 °F 100% 30.26 in - North - - N/A   Unknown
8:54 AM 39.9 °F 39.0 °F 97% 30.27 in - North - - N/A   Unknown
9:54 AM 46.0 °F 41.0 °F 83% 30.25 in - North - - N/A   Unknown
10:54 AM 54.0 °F 44.1 °F 69% 30.22 in - North - - N/A   Unknown
11:54 AM 59.0 °F 39.9 °F 49% 30.20 in - North - - N/A   Unknown
12:54 PM 61.0 °F 36.0 °F 39% 30.18 in - North - - N/A   Unknown
1:54 PM 62.1 °F 39.0 °F 43% 30.16 in - North - - N/A   Unknown
2:54 PM 64.9 °F 37.9 °F 37% 30.13 in - North - - N/A   Unknown
3:54 PM 66.0 °F 37.0 °F 34% 30.10 in - North - - N/A   Unknown
4:54 PM 66.0 °F 36.0 °F 33% 30.10 in - North - - N/A   Unknown
5:54 PM 64.9 °F 36.0 °F 34% 30.09 in - North - - N/A   Unknown
6:54 PM 61.0 °F 44.1 °F 54% 30.08 in - North - - N/A   Unknown
7:54 PM 55.0 °F 46.9 °F 74% 30.08 in - North - - N/A   Unknown
8:54 PM 52.0 °F 46.0 °F 80% 30.08 in - North - - N/A   Unknown
9:54 PM 50.0 °F 46.0 °F 86% 30.07 in - North - - N/A   Unknown
10:54 PM 48.9 °F 46.0 °F 90% 30.07 in - North - - N/A   Unknown
11:54 PM 48.0 °F 45.0 °F 89% 30.06 in - North - - N/A   Unknown